QPF
0.01 0.00 0.00 0.01 0.01 0.01 0.01 0.01 0.04 0.04 0.03 0.04 0.05 0.03 0.02 0.02 0.02 0.03 0.02 0.02 0.02 0.02 0.03 0.02 0.03 0.03 0.05 0.05 0.05 0.05 0.04 0.03 0.04 0.04 0.03 0.03 0.04 0.04 0.03 0.04 0.03 0.03 0.04 0.04
0.01 0.00 0.00 0.01 0.01 0.01 0.01 0.01 0.01 0.01 0.03 0.05 0.03 0.01 0.03 0.03 0.03 0.03 0.02 0.02 0.02 0.02 0.03 0.02 0.02 0.02 0.03 0.05 0.06 0.07 0.06 0.04 0.04 0.03 0.02 0.02 0.02 0.03 0.04 0.04 0.04 0.05 0.05 0.06
0.01 0.01 0.01 0.02 0.01 0.01 0.01 0.01 0.01 0.02 0.03 0.03 0.02 0.02 0.02 0.02 0.01 0.02 0.01 0.01 0.02 0.02 0.02 0.02 0.01 0.01 0.02 0.04 0.08 0.08 0.07 0.04 0.03 0.02 0.01 0.01 0.01 0.02 0.04 0.04 0.03 0.04 0.05 0.06
0.02 0.02 0.03 0.03 0.01 0.01 0.01 0.02 0.01 0.02 0.02 0.01 0.01 0.01 0.02 0.01 0.01 0.01 0.01 0.01 0.01 0.02 0.02 0.02 0.02 0.01 0.01 0.03 0.07 0.10 0.07 0.04 0.03 0.02 0.02 0.02 0.02 0.02 0.03 0.04 0.04 0.04 0.04 0.05
0.02 0.03 0.03 0.03 0.03 0.02 0.02 0.04 0.02 0.01 0.01 0.01 0.01 0.01 0.03 0.02 0.01 0.01 0.00 0.01 0.01 0.02 0.02 0.03 0.03 0.01 0.01 0.02 0.04 0.06 0.07 0.05 0.03 0.03 0.03 0.02 0.02 0.03 0.04 0.05 0.05 0.05 0.05 0.05
0.04 0.05 0.04 0.04 0.03 0.02 0.02 0.04 0.03 0.02 0.02 0.02 0.01 0.03 0.04 0.03 0.01 0.01 0.01 0.02 0.01 0.01 0.02 0.03 0.02 0.02 0.02 0.02 0.03 0.03 0.04 0.04 0.04 0.04 0.05 0.04 0.04 0.04 0.05 0.05 0.05 0.05 0.05 0.04
0.06 0.06 0.05 0.04 0.02 0.01 0.04 0.06 0.03 0.01 0.01 0.01 0.01 0.02 0.03 0.02 0.02 0.03 0.03 0.03 0.02 0.01 0.01 0.02 0.02 0.02 0.02 0.02 0.03 0.03 0.03 0.03 0.03 0.04 0.04 0.04 0.04 0.03 0.05 0.05 0.06 0.06 0.05 0.05
0.07 0.08 0.08 0.05 0.03 0.03 0.05 0.03 0.02 0.01 0.01 0.01 0.01 0.01 0.01 0.01 0.01 0.02 0.04 0.03 0.03 0.02 0.01 0.01 0.02 0.03 0.02 0.03 0.03 0.03 0.04 0.04 0.04 0.04 0.03 0.03 0.03 0.04 0.04 0.05 0.06 0.07 0.07 0.06
0.08 0.10 0.09 0.07 0.08 0.06 0.04 0.04 0.03 0.02 0.01 0.02 0.02 0.02 0.01 0.01 0.01 0.01 0.02 0.02 0.02 0.02 0.02 0.02 0.03 0.04 0.04 0.04 0.04 0.04 0.05 0.05 0.05 0.04 0.05 0.05 0.04 0.04 0.04 0.05 0.05 0.05 0.05 0.05
0.07 0.08 0.11 0.10 0.08 0.08 0.05 0.04 0.03 0.02 0.02 0.02 0.02 0.02 0.02 0.01 0.01 0.01 0.02 0.02 0.02 0.04 0.02 0.02 0.03 0.06 0.06 0.06 0.05 0.04 0.04 0.04 0.04 0.03 0.04 0.04 0.04 0.03 0.03 0.04 0.05 0.05 0.04 0.05
0.07 0.07 0.07 0.08 0.08 0.07 0.08 0.06 0.02 0.01 0.01 0.01 0.02 0.03 0.03 0.03 0.03 0.02 0.02 0.02 0.03 0.05 0.04 0.03 0.03 0.04 0.05 0.05 0.04 0.04 0.04 0.04 0.03 0.03 0.03 0.04 0.04 0.03 0.02 0.03 0.04 0.04 0.04 0.05
0.08 0.08 0.08 0.06 0.06 0.07 0.08 0.07 0.03 0.02 0.01 0.02 0.03 0.04 0.05 0.05 0.03 0.02 0.02 0.03 0.03 0.04 0.04 0.03 0.03 0.03 0.03 0.04 0.04 0.04 0.05 0.05 0.04 0.04 0.04 0.03 0.03 0.03 0.02 0.02 0.01 0.02 0.02 0.03
0.08 0.07 0.08 0.08 0.07 0.07 0.06 0.06 0.07 0.05 0.02 0.03 0.05 0.05 0.04 0.03 0.03 0.03 0.03 0.03 0.02 0.03 0.03 0.02 0.02 0.02 0.02 0.03 0.03 0.05 0.05 0.05 0.05 0.06 0.06 0.04 0.03 0.03 0.02 0.02 0.01 0.01 0.01 0.01
0.06 0.06 0.05 0.05 0.05 0.04 0.04 0.04 0.04 0.05 0.04 0.04 0.04 0.03 0.03 0.03 0.03 0.03 0.03 0.02 0.02 0.01 0.01 0.01 0.01 0.01 0.01 0.02 0.02 0.03 0.04 0.05 0.05 0.06 0.06 0.05 0.04 0.03 0.03 0.03 0.02 0.01 0.01 0.01
0.04 0.06 0.06 0.04 0.03 0.03 0.04 0.04 0.04 0.05 0.06 0.06 0.05 0.04 0.03 0.03 0.02 0.02 0.02 0.02 0.02 0.01 0.01 0.01 0.01 0.01 0.02 0.03 0.02 0.02 0.03 0.04 0.04 0.04 0.05 0.05 0.05 0.04 0.04 0.03 0.03 0.02 0.02 0.02
0.03 0.04 0.05 0.04 0.03 0.03 0.03 0.03 0.04 0.05 0.07 0.07 0.08 0.06 0.03 0.02 0.01 0.01 0.02 0.02 0.02 0.02 0.01 0.02 0.01 0.01 0.01 0.03 0.03 0.03 0.03 0.04 0.04 0.03 0.04 0.05 0.05 0.05 0.05 0.04 0.03 0.03 0.03 0.02
0.04 0.04 0.05 0.04 0.04 0.04 0.04 0.04 0.05 0.05 0.06 0.07 0.07 0.08 0.05 0.03 0.03 0.04 0.03 0.01 0.02 0.02 0.01 0.02 0.02 0.02 0.02 0.03 0.03 0.03 0.03 0.03 0.04 0.04 0.03 0.04 0.05 0.05 0.06 0.06 0.05 0.05 0.04 0.04
0.05 0.05 0.05 0.04 0.03 0.03 0.03 0.04 0.04 0.04 0.05 0.06 0.04 0.04 0.04 0.05 0.04 0.02 0.01 0.02 0.03 0.04 0.03 0.02 0.02 0.02 0.02 0.03 0.03 0.02 0.02 0.02 0.02 0.03 0.04 0.04 0.05 0.05 0.06 0.07 0.06 0.06 0.05 0.04
0.04 0.05 0.06 0.04 0.03 0.03 0.03 0.03 0.03 0.04 0.05 0.05 0.04 0.04 0.04 0.03 0.02 0.01 0.01 0.02 0.03 0.04 0.03 0.02 0.02 0.01 0.02 0.02 0.02 0.02 0.03 0.03 0.03 0.03 0.04 0.04 0.04 0.04 0.05 0.06 0.07 0.07 0.07 0.06
0.02 0.03 0.04 0.03 0.03 0.03 0.03 0.03 0.04 0.05 0.05 0.05 0.05 0.05 0.04 0.03 0.02 0.01 0.02 0.03 0.03 0.03 0.02 0.02 0.02 0.02 0.01 0.01 0.01 0.01 0.02 0.03 0.03 0.04 0.03 0.03 0.03 0.04 0.04 0.03 0.04 0.06 0.07 0.05
0.01 0.01 0.02 0.02 0.02 0.03 0.02 0.03 0.04 0.04 0.05 0.04 0.05 0.04 0.03 0.02 0.02 0.02 0.03 0.03 0.03 0.03 0.03 0.02 0.02 0.01 0.01 0.01 0.02 0.01 0.01 0.02 0.02 0.03 0.03 0.02 0.02 0.02 0.02 0.02 0.02 0.04 0.05 0.05
0.01 0.01 0.01 0.01 0.03 0.04 0.04 0.04 0.04 0.04 0.04 0.05 0.05 0.04 0.03 0.02 0.03 0.04 0.05 0.04 0.03 0.03 0.02 0.02 0.02 0.02 0.02 0.02 0.02 0.02 0.02 0.03 0.02 0.02 0.02 0.02 0.03 0.03 0.02 0.03 0.03 0.03 0.03 0.04
0.02 0.02 0.02 0.02 0.03 0.04 0.05 0.06 0.05 0.05 0.05 0.05 0.05 0.04 0.03 0.03 0.04 0.04 0.04 0.03 0.03 0.03 0.02 0.02 0.03 0.03 0.02 0.01 0.02 0.03 0.03 0.02 0.01 0.01 0.01 0.01 0.02 0.03 0.03 0.04 0.04 0.03 0.03 0.03
0.03 0.03 0.03 0.03 0.04 0.05 0.06 0.06 0.05 0.06 0.08 0.07 0.04 0.02 0.02 0.02 0.03 0.03 0.02 0.03 0.03 0.03 0.03 0.03 0.03 0.02 0.02 0.01 0.01 0.02 0.01 0.01 0.01 0.01 0.02 0.02 0.02 0.03 0.04 0.04 0.04 0.03 0.03 0.03
0.04 0.04 0.04 0.05 0.05 0.05 0.05 0.06 0.05 0.06 0.07 0.07 0.04 0.02 0.01 0.02 0.03 0.02 0.02 0.02 0.02 0.03 0.03 0.03 0.03 0.02 0.01 0.01 0.01 0.01 0.01 0.01 0.02 0.03 0.02 0.02 0.02 0.03 0.03 0.03 0.03 0.02 0.02 0.02
0.06 0.06 0.06 0.05 0.05 0.05 0.06 0.06 0.06 0.08 0.09 0.08 0.05 0.03 0.02 0.03 0.03 0.02 0.02 0.03 0.04 0.04 0.04 0.04 0.04 0.04 0.03 0.02 0.02 0.01 0.01 0.01 0.02 0.02 0.02 0.02 0.02 0.03 0.05 0.04 0.03 0.02 0.02 0.02
0.05 0.06 0.07 0.06 0.05 0.06 0.07 0.07 0.09 0.10 0.08 0.07 0.07 0.05 0.05 0.04 0.03 0.03 0.04 0.05 0.06 0.05 0.06 0.06 0.06 0.06 0.05 0.05 0.05 0.03 0.02 0.01 0.01 0.01 0.02 0.02 0.03 0.04 0.05 0.05 0.04 0.03 0.02 0.01
MSLP
1008.08 1007.52 1006.85 1006.12 1005.33 1004.51 1003.68 1002.86 1002.09 1001.42 1000.90 1000.60 1000.59 1000.88 1001.48 1002.38 1003.50 1004.78 1006.11 1007.41 1008.60 1009.65 1010.53 1011.27 1011.90 1012.48 1013.04 1013.63 1014.25 1014.90 1015.54 1016.14 1016.67 1017.11 1017.44 1017.69 1017.88 1018.05 1018.23 1018.43 1018.69 1018.97 1019.27 1019.55
1008.28 1007.78 1007.14 1006.37 1005.51 1004.57 1003.59 1002.62 1001.71 1000.92 1000.33 999.99 999.96 1000.27 1000.91 1001.84 1003.00 1004.30 1005.65 1006.97 1008.18 1009.25 1010.18 1010.98 1011.68 1012.33 1012.98 1013.64 1014.33 1015.03 1015.72 1016.36 1016.92 1017.38 1017.74 1018.01 1018.22 1018.41 1018.60 1018.83 1019.09 1019.39 1019.70 1019.99
1007.96 1007.53 1006.96 1006.23 1005.36 1004.39 1003.34 1002.28 1001.28 1000.41 999.75 999.36 999.32 999.63 1000.27 1001.22 1002.40 1003.72 1005.09 1006.44 1007.68 1008.79 1009.77 1010.62 1011.38 1012.11 1012.82 1013.54 1014.29 1015.04 1015.77 1016.44 1017.04 1017.53 1017.92 1018.21 1018.44 1018.65 1018.85 1019.08 1019.35 1019.65 1019.96 1020.25
1007.33 1006.96 1006.46 1005.80 1004.98 1004.02 1002.97 1001.88 1000.83 999.91 999.20 998.78 998.70 999.00 999.64 1000.59 1001.78 1003.12 1004.52 1005.89 1007.17 1008.32 1009.34 1010.25 1011.07 1011.84 1012.61 1013.38 1014.17 1014.95 1015.71 1016.42 1017.04 1017.55 1017.96 1018.27 1018.52 1018.73 1018.93 1019.16 1019.41 1019.70 1019.99 1020.27
1006.65 1006.31 1005.85 1005.26 1004.49 1003.58 1002.55 1001.47 1000.41 999.46 998.72 998.26 998.16 998.44 999.07 1000.03 1001.22 1002.58 1004.00 1005.40 1006.72 1007.91 1008.98 1009.93 1010.79 1011.60 1012.40 1013.20 1014.01 1014.81 1015.59 1016.31 1016.94 1017.47 1017.89 1018.21 1018.46 1018.67 1018.86 1019.06 1019.29 1019.55 1019.82 1020.08
1006.15 1005.78 1005.33 1004.76 1004.04 1003.16 1002.16 1001.09 1000.03 999.07 998.31 997.84 997.72 997.98 998.61 999.57 1000.78 1002.15 1003.60 1005.03 1006.38 1007.61 1008.71 1009.70 1010.59 1011.43 1012.24 1013.05 1013.86 1014.67 1015.44 1016.16 1016.80 1017.33 1017.75 1018.07 1018.32 1018.51 1018.68 1018.86 1019.06 1019.28 1019.52 1019.77
1005.95 1005.49 1004.99 1004.40 1003.67 1002.80 1001.81 1000.75 999.69 998.73 997.97 997.50 997.38 997.64 998.27 999.24 1000.46 1001.85 1003.32 1004.78 1006.16 1007.42 1008.56 1009.57 1010.48 1011.33 1012.15 1012.96 1013.76 1014.56 1015.32 1016.03 1016.65 1017.17 1017.59 1017.90 1018.13 1018.31 1018.46 1018.62 1018.79 1018.99 1019.21 1019.45
1006.01 1005.43 1004.83 1004.17 1003.39 1002.49 1001.48 1000.41 999.35 998.41 997.66 997.20 997.10 997.38 998.04 999.02 1000.26 1001.68 1003.17 1004.65 1006.05 1007.34 1008.49 1009.52 1010.45 1011.30 1012.12 1012.93 1013.72 1014.50 1015.24 1015.92 1016.53 1017.03 1017.43 1017.73 1017.95 1018.12 1018.26 1018.40 1018.57 1018.77 1018.99 1019.22
1006.24 1005.51 1004.78 1003.99 1003.12 1002.15 1001.10 1000.01 998.96 998.04 997.33 996.91 996.86 997.19 997.88 998.90 1000.17 1001.60 1003.11 1004.60 1006.01 1007.31 1008.47 1009.51 1010.45 1011.31 1012.13 1012.93 1013.71 1014.47 1015.19 1015.85 1016.43 1016.91 1017.29 1017.58 1017.79 1017.95 1018.09 1018.25 1018.43 1018.64 1018.89 1019.15
1006.46 1005.57 1004.68 1003.76 1002.77 1001.71 1000.60 999.50 998.46 997.58 996.94 996.60 996.63 997.04 997.80 998.86 1000.16 1001.61 1003.11 1004.60 1006.01 1007.29 1008.45 1009.49 1010.43 1011.30 1012.12 1012.91 1013.69 1014.43 1015.14 1015.78 1016.33 1016.79 1017.15 1017.42 1017.62 1017.79 1017.95 1018.12 1018.34 1018.60 1018.89 1019.20
1006.52 1005.48 1004.44 1003.36 1002.24 1001.09 999.94 998.83 997.84 997.04 996.50 996.28 996.43 996.94 997.78 998.90 1000.23 1001.68 1003.18 1004.64 1006.01 1007.27 1008.40 1009.42 1010.35 1011.22 1012.04 1012.84 1013.62 1014.36 1015.04 1015.67 1016.20 1016.63 1016.97 1017.22 1017.42 1017.59 1017.77 1017.98 1018.24 1018.56 1018.92 1019.30
1006.32 1005.15 1003.97 1002.75 1001.52 1000.30 999.12 998.04 997.12 996.44 996.05 995.99 996.29 996.93 997.87 999.06 1000.41 1001.85 1003.31 1004.71 1006.03 1007.22 1008.31 1009.29 1010.20 1011.05 1011.88 1012.68 1013.45 1014.19 1014.87 1015.48 1015.99 1016.39 1016.71 1016.94 1017.13 1017.30 1017.50 1017.75 1018.06 1018.43 1018.86 1019.32
1005.88 1004.61 1003.31 1001.98 1000.66 999.39 998.22 997.20 996.40 995.88 995.67 995.79 996.27 997.05 998.10 999.35 1000.71 1002.13 1003.52 1004.85 1006.06 1007.17 1008.18 1009.10 1009.97 1010.80 1011.61 1012.41 1013.19 1013.93 1014.60 1015.19 1015.68 1016.07 1016.35 1016.56 1016.73 1016.90 1017.10 1017.37 1017.72 1018.15 1018.64 1019.15
1005.31 1003.96 1002.56 1001.15 999.77 998.49 997.36 996.44 995.78 995.44 995.43 995.76 996.42 997.35 998.50 999.80 1001.16 1002.52 1003.83 1005.05 1006.15 1007.14 1008.04 1008.88 1009.68 1010.47 1011.27 1012.06 1012.83 1013.57 1014.24 1014.82 1015.29 1015.65 1015.91 1016.09 1016.24 1016.39 1016.59 1016.86 1017.22 1017.67 1018.20 1018.76
1004.76 1003.34 1001.87 1000.40 999.00 997.73 996.67 995.86 995.36 995.20 995.39 995.92 996.75 997.82 999.05 1000.38 1001.72 1003.01 1004.22 1005.30 1006.27 1007.13 1007.91 1008.65 1009.38 1010.11 1010.87 1011.65 1012.41 1013.15 1013.81 1014.39 1014.84 1015.18 1015.42 1015.57 1015.69 1015.81 1015.99 1016.24 1016.60 1017.05 1017.58 1018.16
1004.37 1002.91 1001.40 999.90 998.49 997.25 996.26 995.57 995.21 995.22 995.58 996.27 997.24 998.41 999.70 1001.03 1002.33 1003.54 1004.63 1005.58 1006.40 1007.13 1007.79 1008.42 1009.07 1009.74 1010.46 1011.21 1011.96 1012.69 1013.35 1013.92 1014.37 1014.69 1014.91 1015.05 1015.14 1015.23 1015.38 1015.60 1015.92 1016.35 1016.86 1017.41
1004.24 1002.76 1001.23 999.73 998.33 997.13 996.20 995.60 995.36 995.49 995.97 996.77 997.82 999.04 1000.34 1001.64 1002.88 1004.01 1004.98 1005.81 1006.51 1007.11 1007.66 1008.20 1008.77 1009.38 1010.06 1010.77 1011.51 1012.22 1012.88 1013.44 1013.89 1014.22 1014.43 1014.55 1014.63 1014.71 1014.82 1015.01 1015.29 1015.67 1016.12 1016.64
1004.41 1002.95 1001.43 999.93 998.56 997.39 996.51 995.95 995.77 995.95 996.49 997.32 998.38 999.60 1000.87 1002.12 1003.29 1004.32 1005.20 1005.93 1006.53 1007.04 1007.51 1007.98 1008.48 1009.05 1009.68 1010.36 1011.07 1011.77 1012.42 1012.98 1013.43 1013.77 1013.99 1014.12 1014.20 1014.26 1014.36 1014.51 1014.75 1015.07 1015.47 1015.92
1004.86 1003.44 1001.96 1000.50 999.15 998.01 997.13 996.58 996.39 996.55 997.05 997.84 998.85 1000.00 1001.20 1002.37 1003.46 1004.42 1005.23 1005.89 1006.43 1006.89 1007.32 1007.75 1008.22 1008.75 1009.34 1009.99 1010.67 1011.35 1011.98 1012.53 1012.99 1013.33 1013.57 1013.72 1013.81 1013.89 1013.98 1014.12 1014.32 1014.59 1014.92 1015.31
1005.49 1004.15 1002.74 1001.34 1000.02 998.88 997.99 997.40 997.14 997.22 997.62 998.29 999.18 1000.21 1001.29 1002.37 1003.38 1004.28 1005.05 1005.69 1006.22 1006.68 1007.10 1007.52 1007.98 1008.49 1009.06 1009.67 1010.31 1010.95 1011.55 1012.08 1012.53 1012.88 1013.14 1013.32 1013.44 1013.54 1013.65 1013.78 1013.96 1014.19 1014.48 1014.80
1006.18 1004.97 1003.66 1002.33 1001.06 999.92 999.00 998.33 997.96 997.90 998.14 998.65 999.37 1000.24 1001.20 1002.16 1003.10 1003.95 1004.71 1005.36 1005.92 1006.42 1006.88 1007.33 1007.79 1008.29 1008.83 1009.41 1009.99 1010.58 1011.12 1011.62 1012.05 1012.39 1012.66 1012.87 1013.02 1013.16 1013.29 1013.44 1013.61 1013.83 1014.07 1014.34
1006.83 1005.78 1004.60 1003.37 1002.16 1001.04 1000.07 999.32 998.82 998.60 998.65 998.96 999.49 1000.19 1000.99 1001.85 1002.71 1003.54 1004.30 1004.99 1005.61 1006.17 1006.68 1007.18 1007.66 1008.16 1008.67 1009.19 1009.72 1010.22 1010.70 1011.14 1011.52 1011.84 1012.11 1012.33 1012.51 1012.68 1012.84 1013.01 1013.20 1013.41 1013.63 1013.86
1007.37 1006.49 1005.47 1004.37 1003.23 1002.14 1001.15 1000.32 999.70 999.31 999.18 999.29 999.62 1000.13 1000.79 1001.54 1002.33 1003.14 1003.92 1004.65 1005.33 1005.96 1006.54 1007.08 1007.60 1008.09 1008.56 1009.02 1009.47 1009.89 1010.28 1010.63 1010.95 1011.23 1011.48 1011.70 1011.90 1012.09 1012.28 1012.48 1012.69 1012.90 1013.11 1013.32
1007.74 1007.04 1006.19 1005.23 1004.20 1003.16 1002.17 1001.29 1000.58 1000.06 999.76 999.68 999.83 1000.18 1000.70 1001.34 1002.06 1002.83 1003.62 1004.39 1005.13 1005.81 1006.45 1007.03 1007.56 1008.04 1008.47 1008.87 1009.23 1009.55 1009.85 1010.11 1010.36 1010.58 1010.79 1011.00 1011.20 1011.41 1011.63 1011.84 1012.06 1012.28 1012.49 1012.69
1007.93 1007.40 1006.72 1005.91 1005.00 1004.04 1003.09 1002.21 1001.44 1000.83 1000.40 1000.18 1000.18 1000.38 1000.76 1001.29 1001.94 1002.67 1003.44 1004.21 1004.97 1005.69 1006.36 1006.96 1007.49 1007.95 1008.34 1008.68 1008.96 1009.20 1009.40 1009.59 1009.76 1009.93 1010.10 1010.29 1010.48 1010.70 1010.92 1011.15 1011.39 1011.61 1011.82 1012.01
1007.93 1007.56 1007.03 1006.37 1005.59 1004.75 1003.88 1003.03 1002.26 1001.60 1001.10 1000.78 1000.66 1000.74 1000.99 1001.41 1001.97 1002.62 1003.34 1004.08 1004.83 1005.54 1006.20 1006.80 1007.31 1007.75 1008.11 1008.40 1008.62 1008.80 1008.94 1009.06 1009.18 1009.31 1009.45 1009.62 1009.81 1010.02 1010.25 1010.49 1010.73 1010.95 1011.16 1011.34
1007.78 1007.52 1007.13 1006.60 1005.97 1005.25 1004.48 1003.71 1002.99 1002.34 1001.81 1001.44 1001.23 1001.20 1001.34 1001.64 1002.08 1002.63 1003.26 1003.93 1004.61 1005.28 1005.91 1006.47 1006.97 1007.38 1007.72 1007.98 1008.18 1008.33 1008.45 1008.55 1008.65 1008.77 1008.90 1009.06 1009.25 1009.47 1009.70 1009.94 1010.17 1010.40 1010.59 1010.76
Thickness
5727 5738 5741 5739 5738 5741 5738 5732 5722 5725 5725 5728 5732 5731 5731 5731 5727 5724 5721 5717 5716 5713 5712 5710 5707 5705 5703 5700 5698 5695 5691 5688 5686 5685 5683 5681 5679 5678 5676 5675 5674 5673 5671 5669
5719 5733 5737 5734 5738 5737 5734 5733 5728 5726 5723 5734 5736 5733 5728 5725 5721 5717 5715 5713 5711 5709 5706 5704 5702 5701 5698 5696 5694 5691 5686 5684 5682 5681 5679 5677 5675 5674 5672 5671 5670 5669 5667 5665
5705 5722 5725 5717 5728 5730 5729 5731 5727 5717 5720 5727 5725 5722 5719 5718 5715 5713 5711 5709 5706 5704 5701 5699 5698 5696 5693 5691 5689 5685 5681 5679 5678 5677 5675 5674 5673 5670 5668 5667 5666 5664 5663 5661
5701 5704 5688 5714 5735 5732 5725 5725 5727 5722 5722 5722 5720 5719 5718 5716 5711 5708 5706 5703 5701 5699 5697 5695 5693 5691 5689 5687 5683 5679 5676 5675 5674 5672 5670 5669 5668 5666 5664 5663 5662 5660 5659 5658
5692 5690 5697 5713 5721 5720 5712 5710 5719 5715 5715 5717 5717 5714 5708 5710 5708 5704 5701 5698 5695 5694 5692 5689 5686 5685 5682 5679 5677 5674 5672 5670 5669 5668 5666 5665 5663 5662 5660 5659 5658 5657 5656 5654
5686 5680 5678 5696 5714 5722 5712 5695 5707 5708 5705 5706 5704 5693 5693 5701 5701 5698 5695 5692 5689 5687 5685 5681 5680 5678 5674 5672 5670 5668 5667 5666 5665 5664 5662 5660 5659 5658 5657 5655 5654 5654 5653 5651
5675 5674 5682 5698 5709 5711 5685 5680 5697 5700 5699 5697 5692 5688 5692 5695 5693 5691 5688 5685 5682 5679 5676 5674 5673 5671 5667 5665 5664 5664 5664 5662 5661 5659 5658 5657 5655 5654 5653 5651 5650 5650 5648 5647
5670 5664 5665 5689 5691 5683 5678 5687 5690 5692 5693 5691 5688 5688 5687 5686 5683 5681 5679 5676 5674 5671 5669 5669 5667 5664 5661 5659 5660 5660 5659 5657 5656 5655 5654 5654 5651 5650 5649 5647 5645 5644 5643 5642
5664 5662 5671 5679 5676 5679 5682 5680 5682 5684 5687 5686 5682 5679 5678 5677 5675 5673 5671 5669 5667 5665 5663 5662 5661 5659 5655 5655 5655 5654 5652 5651 5650 5650 5649 5648 5647 5645 5643 5642 5641 5641 5639 5638
5662 5663 5667 5671 5673 5675 5676 5676 5676 5678 5679 5678 5674 5672 5670 5669 5667 5665 5664 5663 5661 5658 5656 5655 5655 5654 5652 5651 5650 5648 5646 5645 5645 5644 5644 5643 5642 5642 5640 5639 5638 5638 5637 5637
5651 5654 5659 5662 5665 5667 5669 5670 5670 5672 5673 5672 5668 5665 5662 5660 5659 5659 5658 5657 5655 5653 5651 5650 5651 5650 5649 5647 5644 5642 5640 5640 5640 5640 5640 5639 5639 5638 5638 5637 5636 5635 5634 5635
5639 5646 5647 5650 5658 5661 5660 5661 5663 5663 5664 5665 5663 5659 5657 5654 5653 5652 5651 5651 5649 5648 5647 5646 5646 5645 5644 5643 5641 5638 5635 5635 5636 5636 5637 5637 5636 5634 5634 5633 5632 5632 5631 5630
5641 5646 5646 5648 5653 5655 5656 5658 5659 5659 5657 5656 5655 5654 5650 5648 5646 5646 5645 5645 5644 5643 5643 5642 5641 5640 5641 5640 5638 5634 5632 5632 5633 5634 5634 5634 5633 5632 5630 5629 5627 5627 5627 5626
5640 5639 5637 5641 5644 5649 5651 5652 5653 5652 5651 5651 5650 5647 5644 5641 5639 5638 5638 5638 5639 5638 5638 5637 5636 5636 5637 5636 5634 5631 5629 5629 5629 5630 5632 5632 5631 5631 5630 5629 5626 5625 5623 5620
5631 5632 5632 5635 5638 5642 5644 5645 5644 5644 5644 5643 5642 5639 5636 5634 5632 5632 5633 5634 5633 5633 5632 5632 5631 5631 5633 5632 5630 5628 5627 5626 5626 5627 5628 5629 5629 5629 5628 5628 5628 5626 5623 5618
5622 5625 5626 5627 5629 5632 5635 5635 5634 5635 5636 5635 5634 5633 5631 5629 5628 5628 5628 5628 5626 5626 5627 5627 5626 5627 5629 5628 5626 5625 5624 5622 5622 5623 5625 5625 5626 5625 5624 5624 5623 5623 5620 5618
5612 5612 5614 5616 5620 5624 5626 5627 5628 5629 5630 5629 5628 5628 5626 5625 5623 5622 5622 5622 5621 5621 5622 5622 5622 5624 5624 5624 5622 5623 5623 5622 5619 5620 5622 5621 5621 5621 5620 5620 5619 5618 5617 5616
5607 5607 5608 5610 5613 5616 5618 5620 5622 5623 5624 5625 5625 5623 5621 5619 5618 5618 5618 5618 5617 5616 5616 5617 5617 5618 5619 5620 5619 5620 5620 5619 5618 5618 5618 5617 5616 5616 5616 5616 5616 5615 5613 5612
5601 5601 5603 5606 5609 5610 5611 5613 5615 5616 5617 5617 5617 5616 5615 5616 5616 5615 5615 5613 5611 5610 5611 5612 5611 5613 5615 5616 5615 5616 5616 5616 5615 5615 5614 5612 5611 5611 5611 5612 5612 5611 5610 5608
5594 5596 5598 5600 5602 5603 5604 5606 5608 5609 5610 5610 5610 5609 5609 5610 5611 5610 5609 5607 5607 5607 5608 5607 5606 5607 5609 5610 5609 5613 5612 5613 5612 5612 5611 5609 5609 5608 5607 5607 5607 5606 5605 5603
5587 5589 5590 5592 5594 5596 5597 5599 5600 5601 5602 5603 5602 5602 5603 5605 5606 5605 5602 5602 5604 5604 5603 5601 5602 5603 5605 5604 5603 5608 5609 5609 5609 5608 5607 5606 5606 5605 5604 5603 5602 5601 5599 5598
5578 5580 5582 5584 5585 5587 5590 5592 5593 5595 5596 5597 5597 5598 5598 5598 5600 5599 5598 5598 5599 5597 5598 5599 5599 5598 5598 5598 5602 5605 5606 5606 5606 5605 5604 5603 5603 5602 5600 5598 5597 5596 5595 5594
5570 5572 5574 5575 5577 5579 5582 5584 5586 5588 5589 5590 5590 5591 5591 5592 5594 5592 5591 5594 5595 5593 5594 5595 5592 5592 5591 5594 5598 5601 5602 5603 5603 5603 5602 5600 5599 5598 5596 5595 5594 5592 5591 5590
5562 5564 5566 5568 5571 5573 5574 5577 5579 5580 5581 5582 5584 5586 5586 5586 5588 5588 5589 5588 5587 5586 5589 5587 5586 5586 5586 5592 5595 5596 5598 5599 5599 5598 5598 5596 5595 5594 5593 5591 5590 5590 5589 5588
5556 5558 5560 5562 5563 5565 5568 5571 5572 5573 5574 5576 5579 5581 5583 5583 5582 5583 5583 5582 5580 5580 5583 5583 5582 5582 5584 5589 5591 5592 5592 5593 5593 5592 5591 5591 5590 5589 5589 5588 5587 5586 5586 5585
5551 5552 5554 5555 5557 5559 5562 5564 5565 5567 5567 5568 5571 5573 5575 5576 5577 5577 5577 5577 5576 5576 5577 5578 5579 5578 5582 5583 5585 5586 5586 5586 5587 5586 5586 5585 5585 5584 5583 5583 5582 5583 5582 5582
5546 5548 5548 5550 5552 5555 5556 5557 5558 5559 5561 5562 5563 5565 5566 5567 5569 5570 5571 5571 5572 5572 5573 5574 5575 5575 5577 5578 5579 5579 5579 5579 5579 5579 5579 5578 5578 5577 5577 5577 5577 5577 5577 5576